Regional Weather Roundup
Issued by NWS Portland, ME

Current Version | Previous Version | Text Only | Print | Product List | Glossary Off
Versions: 1 2 3 4 5 6 7 8 9 10 11 12 13 14 15 16 17 18 19 20 21 22 23 24 25 26 27 28 29 30 31 32 33 34 35 36 37 38 39 40 41 42 43 44 45 46 47 48 49 50
792 ASUS41 KGYX 260905 RWRGYX WEATHER ROUNDUP FOR MAINE AND NEW HAMPSHIRE NATIONAL WEATHER SERVICE GRAY ME 500 AM EDT WED APR 26 2017 MEZ002-005-006-010-012-015-018-020-021-024-026-027-029-261000- MAINE CITY SKY/WX TMP DP RH WIND PRES REMARKS PORTLAND LGT RAIN 45 44 97 E7 30.05F FOG SANFORD LGT RAIN 44 43 96 NE8 30.03F BAR HARBOR CLOUDY 44 44 100 VRB6 30.14F FOG WISCASSET LGT RAIN 50 48 93 NE3 30.07S FOG ROCKLAND LGT RAIN 46 45 96 E13 30.07F FOG FRYEBURG LGT RAIN 44 43 96 VRB6 30.07F FOG LEWISTONAUBURN LGT RAIN 43 42 97 N7 30.07F FOG AUGUSTA LGT RAIN 43 41 93 N6 30.07F FOG WATERVILLE LGT RAIN 44 43 96 N9 30.05F FOG BANGOR LGT RAIN 47 46 97 E10 30.11F GREENVILLE N/A 40 40 100 E9 30.07F MILLINOCKET LGT RAIN 40 40 100 E5 30.17F HOULTON LGT RAIN 40 40 100 SE3 30.17F PRESQUE ISLE LGT RAIN 40 38 93 S12 30.17F FRENCHVILLE LGT RAIN 38 36 92 SE10 30.13F VSB 3/4 CARIBOU LGT RAIN 41 39 93 VRB3 30.15F $$ NHZ002-005-008-009-011-012-014-261000- NEW HAMPSHIRE CITY SKY/WX TMP DP RH WIND PRES REMARKS PORTSMOUTH LGT RAIN 46 45 97 NE10 29.98F FOG ROCHESTER LGT RAIN 44 42 93 N9 30.00F FOG NASHUA LGT RAIN 46 45 96 N6 29.95F MANCHESTER LGT RAIN 47 43 86 N9 29.95F FOG CONCORD CLOUDY 46 43 89 NE8 29.98F LACONIA LGT RAIN 44 42 93 E15 30.01F PLYMOUTH DRIZZLE 45 44 96 CALM 30.01F BERLIN LGT RAIN 43 40 89 CALM 30.04F WHITEFIELD LGT RAIN 47 43 86 CALM 29.99F JAFFREY LGT RAIN 44 44 100 VRB6 29.93F FOG KEENE LGT RAIN 47 45 93 N12 29.92F LEBANON CLOUDY 48 46 93 N5 29.97F MT WASHINGTON RAIN 43 43 100 S51 N/A VSB 1/16 $$ VTZ005-007-008-261000- VERMONT CITY SKY/WX TMP DP RH WIND PRES REMARKS ST JOHNSBURY N/A 48 45 89 MISG 29.98F MONTPELIER CLOUDY 45 45 100 CALM 30.02S FOG BURLINGTON LGT RAIN 50 48 93 CALM 29.94F $$ MAZ007-012-024-CTZ003-RIZ002-NYZ038-NYZ072-261000- SOUTHERN NEW ENGLAND AND NY CITY SKY/WX TMP DP RH WIND PRES REMARKS BOSTON RAIN 50 50 100 NE20 29.91F FOG WORCESTER LGT RAIN 43 42 97 N14G22 29.88F NANTUCKET FOG 52 51 97 E21G30 29.88S VSB 1 PROVIDENCE CLOUDY 53 53 100 N9 29.85F HARTFORD LGT RAIN 48 47 96 N13 29.85F FOG ALBANY DRIZZLE 50 48 93 N5 29.89S NEW YORK CITY LGT RAIN 53 52 96 NE10 29.75F VSB 1/2 $$ ANZ081-ANZ082-ANZ150-NHZ014-MEZ023>029-261000- COASTAL MARINE OBSERVATIONS STATION/POSITION TIME TEMP WIND PRES WAVE AIR SEA DIR/SP/G HT/PER (UTC) (F) (DEG/KT/KT) (MB) (FT/S) MOUNT DESERT ROC 0900 43 1018.6F MATINICUS ROCK 0800 43 100/ 28/ 29 1017.1F ISLE OF SHOALS 0800 45 20/ 19/ 21 1015.7F JEFFREYS LEDGE 0806 44 N/A 7/ 7 CASHES LEDGE BUO 0750 45 42 1017.0 6/ 6 GEORGES BANK BUO 0750 53 42 1017.8 8/ 7 $$ .............KEY.............. WCI - WIND CHILL TC - TEMPERATURE IN CELSIUS VSB - VISIBILITY IN MILES HX - HEAT INDEX FAIR- INDICATES FEW OR NO CLOUDS BELOW 12,000 FT, WITH NO SIGNIFICANT WEATHER AND/OR OBSTRUCTIONS TO VISIBILITY.

USA.gov is the U.S. government's official web portal to all federal, state and local government web resources and services.